Regional Weather Roundup
Issued by NWS Midland/Odessa, TX

Skip options and go directly to product.
Home | Oldest Version | Previous Version | Current Version | All | Text Only | Save Text | Print | Product List | Glossary On

Skip product version selection by date and time.   
155
ASUS44 KMAF 300910
RWRMAF
MIDLAND AREA WEATHER ROUNDUP
NATIONAL WEATHER SERVICE MIDLAND TX
300 AM CST FRI JAN 30 2015

...IN SOUTHWEST TEXAS AND SOUTHEAST NEW MEXICO...

CITY           SKY/WX    TMP DP  RH WIND       PRES   REMARKS
ALPINE         CLOUDY    42  31  66 NE10      30.44F WCI  35
ANDREWS        CLOUDY    41  32  72 E6        30.44S WCI  37
ARTESIA        CLOUDY    45  30  57 SE6       30.45S
BIG SPRING     CLOUDY    45  26  47 NE13      30.46F WCI  38
CARLSBAD       CLOUDY    46  28  49 SE10      30.43F
DRYDEN           N/A     53  32  44 NE13      30.38S
FORT STOCKTON  CLOUDY    46  29  51 E10       30.42S
GUAD PASS      CLOUDY    35  29  78 NE44      30.33F WCI  19
HOBBS          CLOUDY    41  23  48 E10       30.44F WCI  35
MARFA          CLOUDY    41  30  65 NE14G20   30.37F WCI  33
MIDLAND AIRPK  CLOUDY    46  28  50 E10G16    30.45S
MIDLAND INTL   CLOUDY    45  28  51 E13       30.43F WCI  39
ODESSA         CLOUDY    44  28  53 E13       30.44S WCI  38
PECOS          CLOUDY    47  35  63 NE7       30.43F
PRESIDIO       FAIR      56  36  47 NE15G24   30.28F
SEMINOLE       CLOUDY    42  28  57 E6        30.45S WCI  39
SNYDER         CLOUDY   N/A N/A N/A NE8       30.47F
WINK           CLOUDY    45  30  55 NE6       30.42F
$$
...OTHER STATIONS IN TEXAS...

CITY           SKY/WX    TMP DP  RH WIND       PRES   REMARKS
ABILENE        CLOUDY    44  30  57 N5        30.48R
AMARILLO       CLOUDY    37  27  67 SE7       30.46F WCI  32
AUSTIN         CLOUDY    53  34  48 N26       30.39S
BROWNSVILLE    MOCLDY    61  60  97 E3        30.26S FOG
CORPUS CHRISTI MOCLDY    58  57  97 N7        30.29S
DALLAS FTW     MOCLDY    45  31  58 N8        30.47S
DEL RIO        CLOUDY    59  37  44 N5        30.36R
EL PASO        LGT RAIN  45  39  79 NE8       30.31F
HOUSTON INT    MOCLDY    56  42  59 N10       30.35R
LUBBOCK        CLOUDY    40  30  67 NE3       30.46R
SAN ANGELO     CLOUDY    47  32  56 E9        30.43F
SAN ANTONIO    MOCLDY    56  35  45 N15       30.37R
WACO           MOCLDY    46  35  65 N9        30.44S
WICHITA FALLS  NOT AVBL
$$
...OTHER LOCATIONS IN NEW MEXICO...

CITY           SKY/WX    TMP DP  RH WIND       PRES   REMARKS
ALAMAGORDO     CLOUDY    46  32  57 NW6       30.31S
ALBUQUERQUE    LGT SNOW  34  30  85 E14       30.37F FOG     WCI  25
CANNON AFB     CLOUDY    38  29  68 E2        30.45S
CLOVIS         CLOUDY    37  28  70 CALM      30.45F
HOLLOMAN AFB   CLOUDY    46  37  70 NW6       30.30S
ROSWELL        CLOUDY    45  29  53 CALM      30.44S
RUIDOSO        MIX PCPN  32  25  74 SE14      30.41F WCI  22
SANTA FE       LGT SNOW  31  24  75 S20       30.42R WCI  19
TRUTH OR CONSE CLOUDY    42  36  79 N9        30.30F WCI  37
TUCUMCARI      CLOUDY    37  33  85 S5        30.44S WCI  33
$$

USA.gov is the U.S. government's official web portal to all federal, state and local government web resources and services.